This is the latest recevied weather packets stored in our database for station/object JH0KSP-13. If no packets are shown the sender has not sent any weather packets the latest 10 day(s).
| Time | Temp. | Humidity | Pressure | Rain* | Wind** | Luminosity | Snow |
|---|---|---|---|---|---|---|---|
| 1777715217 | 18.89° C | 42% | 1011.4 hPa | 0 mm | - | - | - |
| 1777714015 | 18.89° C | 41% | 1011 hPa | 0 mm | - | - | - |
| 1777712816 | 18.89° C | 40% | 1010.8 hPa | 0 mm | - | - | - |
| 1777711617 | 20° C | 39% | 1010.6 hPa | 0 mm | - | - | - |
| 1777710416 | 20° C | 38% | 1010.5 hPa | 0 mm | - | - | - |
| 1777709216 | 21.11° C | 38% | 1010.2 hPa | 0 mm | - | - | - |
| 1777708016 | 21.11° C | 40% | 1010.1 hPa | 0 mm | - | - | - |
| 1777706816 | 21.11° C | 38% | 1010.2 hPa | 0 mm | - | - | - |
| 1777705616 | 22.22° C | 38% | 1010.1 hPa | 0 mm | - | - | - |
| 1777704417 | 22.22° C | 39% | 1010 hPa | 0 mm | - | - | - |
| 1777703215 | 22.78° C | 37% | 1009.6 hPa | 0 mm | - | - | - |
| 1777702016 | 22.78° C | 34% | 1009.4 hPa | 0 mm | - | - | - |
| 1777700817 | 23.89° C | 35% | 1009.1 hPa | 0 mm | - | - | - |
| 1777699616 | 23.89° C | 33% | 1009.1 hPa | 0 mm | - | - | - |
| 1777698417 | 22.78° C | 33% | 1008.7 hPa | 0 mm | - | - | - |
| 1777697216 | 23.89° C | 32% | 1008.6 hPa | 0 mm | - | - | - |
| 1777696016 | 23.89° C | 31% | 1008.3 hPa | 0 mm | - | - | - |
| 1777694817 | 22.78° C | 34% | 1008.3 hPa | 0 mm | - | - | - |
| 1777693617 | 22.78° C | 34% | 1008.1 hPa | 0 mm | - | - | - |
| 1777692416 | 22.78° C | 35% | 1008 hPa | 0 mm | - | - | - |
| 1777691216 | 22.78° C | 35% | 1007.9 hPa | 0 mm | - | - | - |
| 1777690015 | 22.78° C | 32% | 1007.9 hPa | 0 mm | - | - | - |
| 1777688816 | 22.78° C | 27% | 1007.6 hPa | 0 mm | - | - | - |
| 1777687617 | 22.78° C | 38% | 1007.5 hPa | 0 mm | - | - | - |
| 1777686416 | 21.11° C | 42% | 1007.5 hPa | 0 mm | - | - | - |
* Rain latest hour (hover to see other rain measurements)
** Current wind speed in m/s (hover to see current wind gust speed)